Tracking 30157 objects as of 13-Feb-2025
HD Live streaming from Space Station
objects crossing your sky now

HULIANGWANG DIGUI-09

Track HULIANGWANG DIGUI-09 now!
10-day predictions


NORAD ID: 62331
Int'l Code: 2024-240J
Perigee: 1,116.3 km
Apogee: 1,134.6 km
Inclination: 86.5 °
Period: 107.7 minutes
Semi major axis: 7496 km
RCS: Unknown
Launch date: December 16, 2024
Source: People's Republic of China (PRC)
Launch site: Wenchang Satellite Launch Center (WSC)
Your satellite tracking list
Your tracking list is empty




NASA's NSSDC Master Catalog

Two Line Element Set (TLE):
1 62331U 24240J   25043.87134013  .00000080  00000-0  12314-3 0  9990
2 62331  86.5049 148.6979 0012211 123.8399 236.3906 13.37566826  7817
Source of the keplerian elements: AFSPC